Regional Weather Roundup
Issued by NWS

Home | Current Version | Previous Version | Text Only | Print | Product List | Glossary On
Versions: 1 2 3 4 5 6 7 8 9 10 11 12 13 14 15 16 17 18 19 20 21 22 23 24 25 26 27 28 29 30 31 32 33 34 35 36 37 38 39 40 41 42 43 44 45 46 47 48 49 50
000
ASCA44 KEWX 281820
RWRMX

LATIN AMERICA AND CARIBBEAN REGIONAL WEATHER ROUNDUP
NATIONAL WEATHER SERVICE AUSTIN/SAN ANTONIO TX
1200 PM CST FRI NOV 28 2014

NOTE: "FAIR" INDICATED FEW OR NO CLOUDS BELOW 12,000 FEET WITH NO
SIGNIFICANT WEATHER AND/OR OBSTRUCTIONS TO VISIBILITY.

BAJA CALIFORNIA

CITY           SKY/WX    TMP DP  RH WIND       PRES   REMARKS
LORETO         SUNNY     79  54  41 CALM      29.97F
LA PAZ         SUNNY     77  61  57 N7        30.01
MEXICALI       SUNNY     73  19  13 N6        30.01
S.J. DEL CABO  SUNNY     84  39  20 N12       29.98F
TIJUANA        SUNNY     75  16  10 CALM      30.03S

NORTHWESTERN MEXICO

CITY           SKY/WX    TMP DP  RH WIND       PRES   REMARKS
CULIACAN       SUNNY     84  50  30 CALM      29.97
DURANGO        SUNNY     57  10  15 SE5       30.36F
GUAYMAS        SUNNY     79  54  41 CALM      29.94
HERMOSILLO     SUNNY     81  28  15 CALM      30.02
CD. JUAREZ     SUNNY     59  23  25 CALM      30.21
LOS MOCHIS     SUNNY     77  59  53 CALM      29.99S
OBREGON        SUNNY     77  37  24 SE2       29.96

NORTHEASTERN MEXICO

CITY           SKY/WX    TMP DP  RH WIND       PRES   REMARKS
CHIHUAHUA      SUNNY     61  21  21 CALM      30.29
MATAMOROS      MOSUNNY   75  61  60 SE16      30.32
MONCLOVA       SUNNY     64  41  42 CALM      30.23
MONTERREY      SUNNY     64  48  55 SW3       30.25F
NUEVO LAREDO   SUNNY     70  61  73 CALM      30.27
PIEDRAS NEGRAS SUNNY     64  48  55 SE6       30.27F
REYNOSA        MOSUNNY   72  54  53 S12       30.26
SALTILLO       SUNNY     64  34  32 N7        30.33F
TORREON        SUNNY     61  21  21 CALM      30.32F
CD. VICTORIA   SUNNY     70  46  43 SE10      30.26

WESTERN MEXICO

CITY           SKY/WX    TMP DP  RH WIND       PRES   REMARKS
AGUASCALIENTES SUNNY     57   9  14 CALM      30.37
COLIMA         MOSUNNY   77  52  41 N17       30.07F
DEL BAJIO      MOSUNNY   61  23  23 SE7       30.40F
GUADALAJARA    PTSUNNY   63  19  19 NE3       30.28
MANZANILLO     MOSUNNY   88  64  45 NW6       29.88F
MAZATLAN       MOSUNNY   77  50  38 CALM      29.95F
P. VALLARTA    CLOUDY    86  46  25 NE10      29.92F
URUAPAN        MOSUNNY   70  46  43 CALM      30.23F
ZACATECAS      SUNNY     63  10  13 SE12      30.35F

CENTRAL MEXICO

CITY           SKY/WX    TMP DP  RH WIND       PRES   REMARKS
CUERNAVACA     MOSUNNY   70  28  21 S6        30.25F
MEXICO CITY    SUNNY     59  28  31 CALM      30.38F
MORELIA        PTSUNNY   61  36  39 NW3       30.31F
POZA RICA      CLOUDY    68  63  83 N7        30.32F
PUEBLA         SUNNY     63  39  42 S9        30.39F
QUERETARO      PTSUNNY   55  34  44 E16       30.40F
S. LUIS POTOSI SUNNY     52  32  46 N5        30.39F
TAMPICO        PTSUNNY   72  55  56 W7        30.29F
TOLUCA         MOSUNNY   64  30  27 SE9       30.40F

SOUTHERN MEXICO

CITY           SKY/WX    TMP DP  RH WIND       PRES   REMARKS
ACAPULCO       SUNNY     90  73  58 NW7       29.90F HX  98
B. DE HUATULCO SUNNY     86  73  66 W8        29.91  HX  93
OAXACA         MOSUNNY   66  45  45 E3        30.33F
P. ESCONDIDO   SUNNY     86  72  62 W14       30.03F HX  92
VERACRUZ       CLOUDY    68  63  83 NW2       30.27F
ZIHUATANEJO    MOSUNNY   86  73  66 SW6       29.91F HX  93

YUCATAN PENINSULA

CITY           SKY/WX    TMP DP  RH WIND       PRES   REMARKS
CAMPECHE       MOSUNNY   77  63  61 N16       30.18F
CANCUN         PTSUNNY   75  59  57 N12       30.18F
CHETUMAL       CLOUDY    77  68  73 N12       30.14F
CD. DEL CARMEN PTSUNNY   77  64  65 NE14      30.20
COZUMEL        MOSUNNY   75  61  60 NE21      30.18F
MERIDA         PTSUNNY   77  59  53 E8        30.21F
MINATITLAN     PTSUNNY   72  63  73 NE7       30.21
TAPACHULA      PTSUNNY   84  75  74 CALM      29.86F HX  92
TUX. GUTIERREZ MOSUNNY   77  55  47 N6        30.16F
VILLAHERMOSA   CLOUDY    75  64  69 CALM      30.23F

CENTRAL AMERICA

CITY           SKY/WX    TMP DP  RH WIND       PRES   REMARKS
BELIZE CITY    LGT RAIN  73  72  94 NW3       30.14F
MANAGUA        PTCLDY    88  72  58 E25       29.83F HX  94

CARIBBEAN

CITY           SKY/WX    TMP DP  RH WIND       PRES   REMARKS
ARUBA          MOSUNNY   88  73  62 E17       29.83F HX  96
KINGSTON       MOSUNNY   86  72  62 S9        29.92F HX  92
NASSAU         MOSUNNY   73  59  60 N12       30.11F
SAN JUAN       MOSUNNY   84  73  70 NE14      29.91F HX  91
SANTO DOMINGO  MOSUNNY   86  72  62 S6        29.89F HX  92
ST. CROIX      MOSUNNY   86  73  66 E12       29.92  HX  93
ST. KITTS      MOSUNNY   84  75  74 E9        29.92F HX  92
ST. THOMAS     SUNNY     82  70  65 S9        29.91

$$



USA.gov is the U.S. government's official web portal to all federal, state and local government web resources and services.